This is the latest recevied weather packets stored in our database for station/object WZ8H. If no packets are shown the sender has not sent any weather packets the latest 10 day(s).
| Time | Temp. | Humidity | Pressure | Rain* | Wind** | Luminosity | Snow |
|---|---|---|---|---|---|---|---|
| 1777996811 | 17.22° C | 79% | 1006.3 hPa | 0 mm | - | 197 W/m² | - |
| 1777996507 | 17.22° C | 79% | 1006.1 hPa | 0 mm | - | 265 W/m² | - |
| 1777996194 | 17.22° C | 78% | 1006.2 hPa | 0 mm | - | 199 W/m² | - |
| 1777995874 | 17.22° C | 78% | 1006.3 hPa | 0 mm | - | 206 W/m² | - |
| 1777995551 | 17.22° C | 78% | 1006.3 hPa | 0 mm | - | 149 W/m² | - |
| 1777995215 | 17.22° C | 78% | 1006.3 hPa | 0 mm | - | 155 W/m² | - |
| 1777994893 | 17.22° C | 78% | 1006.2 hPa | 0 mm | - | 176 W/m² | - |
| 1777994594 | 17.22° C | 77% | 1006.1 hPa | 0 mm | - | 190 W/m² | - |
| 1777994289 | 17.78° C | 77% | 1006 hPa | 0 mm | - | 190 W/m² | - |
| 1777993979 | 17.78° C | 77% | 1005.8 hPa | 0 mm | - | 188 W/m² | - |
| 1777993683 | 17.78° C | 77% | 1005.9 hPa | 0 mm | - | 153 W/m² | - |
| 1777993357 | 17.78° C | 77% | 1005.6 hPa | 0 mm | - | 330 W/m² | - |
| 1777993033 | 17.78° C | 76% | 1005.4 hPa | 0 mm | - | 411 W/m² | - |
| 1777992736 | 17.78° C | 76% | 1005.2 hPa | 0 mm | - | 383 W/m² | - |
| 1777992411 | 17.78° C | 76% | 1005 hPa | 0 mm | - | 513 W/m² | - |
| 1777992087 | 17.78° C | 76% | 1004.7 hPa | 0 mm | - | 490 W/m² | - |
| 1777991767 | 17.78° C | 76% | 1004.3 hPa | 0 mm | - | 527 W/m² | - |
| 1777991471 | 17.78° C | 76% | 1004.3 hPa | 0 mm | - | 548 W/m² | - |
| 1777991140 | 17.78° C | 76% | 1004.3 hPa | 0 mm | - | 541 W/m² | - |
| 1777990843 | 17.78° C | 76% | 1004.6 hPa | 0 mm | - | 580 W/m² | - |
| 1777990515 | 17.78° C | 76% | 1004.5 hPa | 0 mm | - | 577 W/m² | - |
| 1777989908 | 17.78° C | 77% | 1004.5 hPa | 0 mm | - | 531 W/m² | - |
| 1777989589 | 17.22° C | 77% | 1004.6 hPa | 0 mm | - | 529 W/m² | - |
| 1777989257 | 17.22° C | 78% | 1004.6 hPa | 0 mm | - | 432 W/m² | - |
| 1777988930 | 17.22° C | 77% | 1004.6 hPa | 0 mm | - | 475 W/m² | - |
* Rain latest hour (hover to see other rain measurements)
** Current wind speed in m/s (hover to see current wind gust speed)